STARLINK-34277, 64156

Orbit data source: Space-Track

STARLINK-34277, 64156 is a payload satellite owned by SpaceX/Seattle (US) in SSO that was launched on Tue, 27 May 2025 UTC via an FALCON 9 launch vehicle from the Air Force Western Test Range (AFWTR). Payload-class satellites include a variety of spacecraft equipped with specific instruments for various scientific and technological missions. These include communications satellites like Starlink; space stations such as the ISS; scientific satellites like the Hubble; Earth observation satellites from companies like Planet Labs, Umbra, and HawkEye 360; GPS; miniature CubeSats for education and research; and military/defense satellites.

Loading next visibility...
Identifier
64156, 2025-112L
Orbit
SSO
Country
Flag of USUS
Related business
Manufacturer
SpaceX/Seattle
Mission
Operational Commercial Communications
Bus & Motor
STARLINK V2MO, Unknown motor
Mass
575 kg wet, ~530 kg dry
Launch date (UTC)
2025-05-27 (1 year ago)
Launch vehicle
FALCON 9
Launch site
Air Force Western Test Range (AFWTR)
Object type
Payload
Rocket body
Debris
Shape & HBR
Box + 1 Pan, 17.7 m
Radar Cross Section
41.120 m², Large (>1 m²)

Expand to show TLE details & history
Last TLE update: 1 day ago

TLE from 1 day ago
0 STARLINK-34277
1 64156U 25112L   26237.09065666  .00011282  00000-0  35128-3 0  9997
2 64156  97.2843 284.5888 0001334 114.1671 245.9712 15.33443928 68705
Epoch: 2026-08-25T02:10Z
TLE epoch observation values (Epoch: 2026-08-25T02:10:32.735Z)
Latitude
0.00005°
Longitude
-81.4106°
Altitude
469.03 km
Speed
7.631 km/s
True Right ascension
18h 58m 21s
True Declination
0° 00' 00"
Sunlit
Object was in full shadow at epoch
Visualization orbit readout
Latitude
Unknown
Longitude
Unknown
Altitude
Unknown
Speed
Unknown
Apparent Right ascension
Unknown
Apparent Declination
Unknown
Sunlit
N/A
Visualization observer readout
Local Sidereal Time
23:18:42
Azimuth
Unknown
Elevation
Unknown
Doppler factor
Unknown
Orbital elements
Apogee altitude
463.402 km
Perigee altitude
461.577 km
Semi-major axis
6,840.626 km
Eccentricity
0.00013
Inclination
97.2843°
RAAN
284.5888°
Arg. of periapsis
114.1671°
True anomaly
245.95724°
Mean anomaly
245.9712°
Eccentric anomaly
245.96422°
Mean motion
3.83618 °/min
Orbital period
93.84 mins
BSTAR
0.00035128
Loading maneuver chart data...
Computing Atmospheric mass density...
Loading historical data...
Loading historical data...
Loading historical data...
Loading historical data...
Loading historical data...
Loading historical data...
Loading historical data...

Documentation

Showing up to 5 results
|